Regional Weather Roundup
Issued by NWS Albany, NY

Home | Current Version | Previous Version | Text Only | Print | Product List | Glossary On
Versions: 1 2 3 4 5 6 7 8 9 10 11 12 13 14 15 16 17 18 19 20 21 22 23 24 25 26 27 28 29 30 31 32 33 34 35 36 37 38 39 40 41 42 43 44 45 46 47 48 49 50
000
ASUS41 KALY 271910
RWRALY

NEW YORK STATE HOURLY WEATHER ROUNDUP
NATIONAL WEATHER SERVICE ALBANY NY
300 PM EDT FRI MAR 27 2015

NOTE: "FAIR" INDICATES FEW OR NO CLOUDS BELOW 12,000 FEET WITH NO
SIGNIFICANT WEATHER AND/OR NO OBSTRUCTIONS TO VISIBILITY.

NYZ032-033-038>043-046>054-057>066-NYZ062>081-272000-
EAST


CITY           SKY/WX    TMP DP  RH WIND       PRES   REMARKS
ALBANY         PTSUNNY   43  27  53 W13       29.74S
GLENS FALLS    LGT RAIN  42  34  73 SE3       29.71F
POUGHKEEPSIE   CLOUDY    45  32  60 NW6       29.72S
NEWBURGH       CLOUDY    43  32  65 N7        29.73S
MONTGOMERY     CLOUDY    44  27  51 NW7       29.70F
WHITE PLAINS   CLOUDY    44  32  62 NW14      29.71S
ISLIP          LGT RAIN  43  34  70 NW9       29.69F
NEW YORK CITY  CLOUDY    45  32  60 N9        29.72F
CENTRAL PARK   CLOUDY    44  32  62 VRB6      29.75S
$$

NYZ005>009-017-018-044>046-055-056-272000-
CENTRAL


CITY           SKY/WX    TMP DP  RH WIND       PRES   REMARKS
FULTON         CLOUDY    33  24  69 W17G23    29.82F WCI  22
SYRACUSE       PTSUNNY   37  27  67 NW16      29.80F WCI  28
ROME           FLURRIES  35  30  82 W17       29.79F WCI  25
ELMIRA         CLOUDY    39  27  62 NW9       29.77F WCI  33
BINGHAMTON     CLOUDY    35  24  64 NW8       29.72F WCI  29
MONTICELLO     CLOUDY    36  27  69 NW12      29.72F WCI  27
$$

NYZ026>034-041>043-272000-
NORTH


CITY           SKY/WX    TMP DP  RH WIND       PRES   REMARKS
WATERTOWN      CLOUDY    31  24  75 N13       29.82S WCI  21
FORT DRUM      NOT AVBL
MASSENA        CLOUDY    30  25  81 NW8       29.83R WCI  22
SARANAC LAKE   CLOUDY    33  27  78 VRB5      29.68S WCI  29
PLATTSBURGH    CLOUDY    33  29  85 N15       29.78R WCI  23
$$

NYZ001>004-010>016-019>021-272000-
WEST


CITY           SKY/WX    TMP DP  RH WIND       PRES   REMARKS
NIAGARA FALLS  LGT SNOW  27  19  72 NW12      29.88F WCI  17
BUFFALO        LGT SNOW  27  21  78 NW12      29.87F WCI  17
DUNKIRK        FLURRIES  28  23  81 W15G28    29.90S WCI  16
JAMESTOWN      CLOUDY    25  18  74 W9        29.83S WCI  15
WELLSVILLE     FLURRIES  31  20  63 N10       29.76S WCI  22
ROCHESTER      FLURRIES  33  23  66 NW12      29.85S WCI  24
PENN YAN       CLOUDY    36  23  59 NW15G21   29.79F WCI  27
$$

             KEY
       WCI = WIND CHILL INDEX
       VSB = VISIBILITY
       HX  = HEAT INDEX
$$



USA.gov is the U.S. government's official web portal to all federal, state and local government web resources and services.